Orbital Elements at Epoch 2459200.5 (2020-Dec-17.0) TDB
Reference: JPL 24 (heliocentric ecliptic J2000)
Element | Value | Uncertainty (1-sigma) | Units |
e | .1260647640571 | 3.7649e-08 | |
a | 2.330686540871459 | 6.7505e-09 | au |
q | 2.03686909200544 | 8.7317e-08 | au |
i | 6.481052816078252 | 4.3153e-06 | deg |
node | 150.1367234741969 | 3.0768e-05 | deg |
peri | 162.2047014125479 | 3.4493e-05 | deg |
M | 158.4848420344657 | 1.5831e-05 | deg |
tp | 2458628.350582972065 (2019-May-24.85058297) | 5.6801e-05 | TDB |
period | 1299.643470542523 3.56 | 5.6464e-06 1.546e-08 | d yr |
n | .2769990448609122 | 1.2034e-09 | deg/d |
Q | 2.624503989737478 | 7.6015e-09 | au |
|
| | Orbit Determination Parameters
Additional Information
|